Date String (YYYY-MM-DD hh:mm:ss) UTC,Instrument flags,absolute air pressure of the measurement (hPa),sample flow rate (lpm),inlet stack bypass flow (lpm),air temperature of the measurement (°C),ambient temperature measured by the external sensor (°C),aerosol sample conditioner tube jacket temperature (°C),OPC LED temperature (°C),internal box temperature (°C),relative humidity of the measurement (%),span deviation,mass concentration of particles derived from Lorenz-Mie calculation of OPC scattering (μg/m³),mass concentration of particles derived from Lorenz-Mie calculation of OPC scattering (μg/m³),mass concentration of particles derived from Lorenz-Mie calculation of OPC scattering (μg/m³)
DateTimeUTC,F1_M11,P_M11,Q1_M11,Q2_M11,T1_M11,T2_M11,T3_M11,T4_M11,T5_M11,U1_M11,ZSPAN_M11,X0_M11,X2_M11,X1_M11
2024-04-07 02:00:00,SystemResetWarning,0810.2,5.00,000.00,019.0,019.4,000.0,027.4,021.3,009.0,0000.0,0117.65,0013.46,0002.66
2024-04-07 02:01:00,SystemResetWarning,0810.0,5.00,000.00,019.2,019.7,000.0,027.4,021.5,008.9,0000.0,0118.98,0013.73,0002.71
2024-04-07 02:02:00,SystemResetWarning,0810.3,5.00,000.00,019.2,019.4,000.0,027.4,021.2,008.8,0000.0,0117.55,0013.71,0002.69
2024-04-07 02:03:00,SystemResetWarning,0810.0,4.99,000.00,019.2,019.1,000.0,027.3,020.9,009.0,0000.0,0116.71,0013.85,0002.69
2024-04-07 02:04:00,SystemResetWarning,0810.0,5.02,000.00,019.1,018.8,000.0,027.3,020.6,008.6,0000.0,0118.28,0014.19,0002.76
2024-04-07 02:05:00,SystemResetWarning,0810.1,5.01,000.00,019.0,018.4,000.0,027.3,020.4,008.5,0000.0,0115.91,0014.35,0002.82
2024-04-07 02:06:00,SystemResetWarning,0809.6,4.99,000.00,018.9,018.2,000.0,027.3,020.2,008.8,0000.0,0108.74,0014.27,0002.85
2024-04-07 02:07:00,SystemResetWarning,0809.7,4.99,000.00,018.8,017.9,000.0,027.2,020.0,008.9,0000.0,0115.46,0014.84,0002.95
2024-04-07 02:08:00,SystemResetWarning,0810.0,5.02,000.00,018.7,017.7,000.0,027.2,020.0,009.0,0000.0,0116.58,0015.10,0002.98
2024-04-07 02:09:00,SystemResetWarning,0810.3,5.00,000.00,018.6,017.5,000.0,027.2,020.0,009.2,0000.0,0128.83,0016.88,0003.23
2024-04-07 02:10:00,SystemResetWarning,0810.2,4.99,000.00,018.6,017.3,000.0,027.2,020.0,009.2,0000.0,0117.58,0015.89,0003.07
2024-04-07 02:11:00,SystemResetWarning,0810.5,4.99,000.00,018.6,017.2,000.0,027.2,020.0,009.2,0000.0,0110.72,0014.80,0002.86
2024-04-07 02:12:00,SystemResetWarning,0810.1,5.00,000.00,018.6,017.7,000.0,027.3,020.3,009.3,0000.0,0113.93,0014.93,0002.85
2024-04-07 02:13:00,SystemResetWarning,0809.9,5.02,000.00,018.8,018.6,000.0,027.3,020.8,009.1,0000.0,0117.06,0015.33,0002.93
2024-04-07 02:14:00,SystemResetWarning,0809.9,4.99,000.00,019.0,019.3,000.0,027.4,021.2,008.9,0000.0,0118.40,0015.20,0002.93
2024-04-07 02:15:00,SystemResetWarning,0809.8,4.99,000.00,019.1,019.2,000.0,027.3,021.1,009.1,0000.0,0115.54,0014.65,0002.84
2024-04-07 02:16:00,SystemResetWarning,0809.7,5.00,000.00,019.0,018.9,000.0,027.3,020.8,009.0,0000.0,0108.33,0013.85,0002.67
2024-04-07 02:17:00,SystemResetWarning,0810.3,5.01,000.00,019.0,018.6,000.0,027.3,020.5,008.8,0000.0,0112.78,0014.39,0002.83
2024-04-07 02:18:00,SystemResetWarning,0809.6,4.99,000.00,018.9,018.3,000.0,027.2,020.2,008.8,0000.0,0107.98,0014.66,0002.90
2024-04-07 02:19:00,SystemResetWarning,0809.6,5.01,000.00,018.8,018.0,000.0,027.2,020.0,008.7,0000.0,0105.14,0014.20,0002.81
2024-04-07 02:20:00,SystemResetWarning,0809.9,5.00,000.00,018.7,017.8,000.0,027.2,020.0,008.8,0000.0,0105.85,0013.60,0002.73
2024-04-07 02:21:00,SystemResetWarning,0810.0,4.99,000.00,018.6,017.6,000.0,027.2,020.0,008.8,0000.0,0107.81,0014.01,0002.83
2024-04-07 02:22:00,SystemResetWarning,0810.1,5.00,000.00,018.6,017.4,000.0,027.2,020.0,008.9,0000.0,0108.70,0014.33,0002.90
2024-04-07 02:23:00,SystemResetWarning,0810.3,5.03,000.00,018.6,017.6,000.0,027.3,020.2,009.1,0000.0,0103.39,0014.01,0002.86
2024-04-07 02:24:00,SystemResetWarning,0809.9,5.00,000.00,018.8,018.5,000.0,027.3,020.7,009.1,0000.0,0100.41,0013.49,0002.78
2024-04-07 02:25:00,SystemResetWarning,0810.3,5.00,000.00,019.0,019.3,000.0,027.4,021.2,009.0,0000.0,0099.11,0013.48,0002.77
2024-04-07 02:26:00,SystemResetWarning,0809.9,4.98,000.00,019.1,019.3,000.0,027.3,021.2,008.9,0000.0,0099.27,0013.59,0002.79
2024-04-07 02:27:00,SystemResetWarning,0809.8,5.01,000.00,019.1,019.0,000.0,027.3,020.9,008.8,0000.0,0105.17,0014.28,0002.92
2024-04-07 02:28:00,SystemResetWarning,0809.9,5.01,000.00,019.0,018.7,000.0,027.3,020.5,008.8,0000.0,0107.93,0014.65,0003.02
2024-04-07 02:29:00,SystemResetWarning,0810.3,5.00,000.00,018.9,018.3,000.0,027.3,020.3,008.8,0000.0,0099.92,0013.68,0002.82
2024-04-07 02:30:00,SystemResetWarning,0810.5,4.98,000.00,018.8,018.1,000.0,027.2,020.1,009.1,0000.0,0100.78,0013.58,0002.81
2024-04-07 02:31:00,SystemResetWarning,0810.2,5.00,000.00,018.7,017.8,000.0,027.2,020.0,009.1,0000.0,0081.43,0011.57,0002.42
2024-04-07 02:32:00,SystemResetWarning,0810.3,5.01,000.00,018.7,017.6,000.0,027.2,020.0,008.9,0000.0,0071.33,0009.87,0002.06
2024-04-07 02:33:00,SystemResetWarning,0810.0,5.00,000.00,018.6,017.4,000.0,027.2,020.0,008.7,0000.0,0069.19,0009.33,0001.94
2024-04-07 02:34:00,SystemResetWarning,0810.0,5.01,000.00,018.6,017.5,000.0,027.2,020.1,008.8,0000.0,0073.29,0009.90,0002.08
2024-04-07 02:35:00,SystemResetWarning,0809.8,5.01,000.00,018.7,018.3,000.0,027.3,020.6,008.9,0000.0,0083.43,0010.90,0002.34
2024-04-07 02:36:00,SystemResetWarning,0809.8,5.00,000.00,019.0,019.2,000.0,027.4,021.1,008.8,0000.0,0094.76,0012.34,0002.62
2024-04-07 02:37:00,SystemResetWarning,0809.9,5.00,000.00,019.1,019.3,000.0,027.4,021.2,008.6,0000.0,0099.67,0013.05,0002.76
2024-04-07 02:38:00,SystemResetWarning,0810.0,4.99,000.00,019.1,019.0,000.0,027.3,020.9,008.8,0000.0,0103.33,0013.99,0002.98
2024-04-07 02:39:00,SystemResetWarning,0810.2,5.00,000.00,019.0,018.7,000.0,027.3,020.5,008.9,0000.0,0097.39,0013.33,0002.79
2024-04-07 02:40:00,SystemResetWarning,0810.1,5.01,000.00,018.9,018.4,000.0,027.3,020.3,009.0,0000.0,0090.52,0012.23,0002.57
2024-04-07 02:41:00,SystemResetWarning,0810.3,5.00,000.00,018.8,018.1,000.0,027.2,020.1,009.1,0000.0,0085.55,0011.60,0002.43
2024-04-07 02:42:00,SystemResetWarning,0809.8,4.98,000.00,018.7,017.9,000.0,027.2,020.0,009.0,0000.0,0084.62,0011.47,0002.40
2024-04-07 02:43:00,SystemResetWarning,0809.8,5.00,000.00,018.7,017.6,000.0,027.2,020.0,008.7,0000.0,0087.12,0011.99,0002.53
2024-04-07 02:44:00,SystemResetWarning,0809.6,5.01,000.00,018.6,017.5,000.0,027.2,020.0,008.9,0000.0,0094.12,0013.24,0002.85
2024-04-07 02:45:00,SystemResetWarning,0810.0,5.00,000.00,018.6,017.7,000.0,027.3,020.2,009.0,0000.0,0099.29,0013.93,0003.01
2024-04-07 02:46:00,SystemResetWarning,0810.0,5.01,000.00,018.8,018.6,000.0,027.3,020.8,008.9,0000.0,0097.32,0014.08,0003.00
2024-04-07 02:47:00,SystemResetWarning,0810.2,5.00,000.00,019.0,019.4,000.0,027.4,021.3,008.6,0000.0,0087.47,0013.26,0002.82
2024-04-07 02:48:00,SystemResetWarning,0810.2,4.98,000.00,019.2,019.7,000.0,027.4,021.5,008.5,0000.0,0082.49,0012.79,0002.76
2024-04-07 02:49:00,SystemResetWarning,0810.0,5.00,000.00,019.2,019.4,000.0,027.4,021.2,008.4,0000.0,0072.32,0011.27,0002.44
2024-04-07 02:50:00,SystemResetWarning,0810.6,5.01,000.00,019.2,019.1,000.0,027.4,020.9,008.3,0000.0,0067.04,0010.36,0002.25
2024-04-07 02:51:00,SystemResetWarning,0810.0,4.98,000.00,019.1,018.8,000.0,027.4,020.7,008.4,0000.0,0060.81,0009.85,0002.18
2024-04-07 02:52:00,SystemResetWarning,0809.8,5.00,000.00,019.0,018.5,000.0,027.3,020.4,008.2,0000.0,0063.02,0009.91,0002.22
2024-04-07 02:53:00,SystemResetWarning,0809.8,5.01,000.00,018.9,018.2,000.0,027.3,020.2,008.4,0000.0,0066.87,0010.54,0002.35
2024-04-07 02:54:00,SystemResetWarning,0809.5,4.99,000.00,018.8,017.9,000.0,027.3,020.0,008.3,0000.0,0073.32,0011.30,0002.46
2024-04-07 02:55:00,SystemResetWarning,0809.8,5.00,000.00,018.7,017.7,000.0,027.3,020.0,008.4,0000.0,0071.18,0010.57,0002.24
2024-04-07 02:56:00,SystemResetWarning,0809.8,4.99,000.00,018.7,017.5,000.0,027.3,020.0,008.6,0000.0,0062.57,0009.65,0002.03
2024-04-07 02:57:00,SystemResetWarning,0809.9,5.00,000.00,018.7,018.0,000.0,027.3,020.4,008.7,0000.0,0055.47,0008.57,0001.83
2024-04-07 02:58:00,SystemResetWarning,0810.0,5.02,000.00,018.9,018.9,000.0,027.4,021.0,008.6,0000.0,0053.38,0008.00,0001.73
2024-04-07 02:59:00,SystemResetWarning,0810.3,4.99,000.00,019.1,019.4,000.0,027.4,021.3,008.6,0000.0,0055.87,0008.18,0001.74
